AirNav   Everest Fuels
 
 356 users online  

15IN Bugtown Airport
New Harmony, Indiana, USA

GOING TO NEW HARMONY?


FAA INFORMATION EFFECTIVE 21 MAY 2020

Location

FAA Identifier: 15IN
Lat/Long: 38-09-02.0000N 087-50-25.0000W
38-09.033333N 087-50.416667W
38.1505556,-87.8402778
(estimated)
Elevation: 464 ft. / 141 m (estimated)
From city: 4 miles E of NEW HARMONY, IN
Time zone: UTC -5 (UTC -6 during Standard Time)
Zip code: 47633

Airport Operations

Airport use: Private use. Permission required prior to landing
Activation date: 05/2006
Control tower: no
ARTCC: INDIANAPOLIS CENTER
FSS: TERRE HAUTE FLIGHT SERVICE STATION
Attendance: UNATNDD
Segmented circle: no

Airport Communications

WX AWOS-3 at CUL (14 nm W): 118.425 (618-382-3760)
WX ASOS at EVV (16 nm SE): 120.2 (812-436-4681)

Nearby radio navigation aids

VOR radial/distance  VOR name  Freq  Var
PXVr342/13.8POCKET CITY VORTAC113.3003E
SAMr147/23.2SAMSVILLE VOR/DME116.6003E

 
NDB name  Hdg/Dist  Freq  Var  ID
WAYNE COUNTY118/30.125701WFWC ..-. .-- -.-.
OLNEY158/37.527203WOLY --- .-.. -.--

Airport Services

Runway Information

Runway 18/36

Dimensions: 1500 x 75 ft. / 457 x 23 m
Surface: turf
RUNWAY 18  RUNWAY 36
Traffic pattern: leftleft

Airport Ownership and Management from official FAA records

Ownership: Privately-owned
Owner: DAVID TANNER
3701 HWY 68
POSEYVILLE, IN 47633
Phone 812-305-0750
Manager: DAVID TANNER
3701 HWY 68
POSEYVILLE, IN 47633
Phone 812-305-0750

Additional Remarks

FOR CD CTC EVANSVILLE APCH AT 812-436-4690, WHEN APCH CLSD CTC INDIANAPOLIS ARTCC AT 317-247-2411.

Instrument Procedures

There are no published instrument procedures at 15IN.

Some nearby airports with instrument procedures:

KCUL - Carmi Municipal Airport (14 nm W)
KEVV - Evansville Regional Airport (16 nm SE)
KEHR - Henderson City-County Airport (22 nm S)
KAJG - Mount Carmel Municipal Airport (28 nm N)
KFWC - Fairfield Municipal Airport (30 nm NW)
 
Loc | Ops | Rwys | IFR | FBO | Links
Com | Nav | Svcs | Stats | Notes
Area around 15IN (Bugtown Airport)
 
Road maps at: MapQuest Bing Google
 
Aerial photo
No photo
 
Sectional chart

 
Airport distance calculator
Flying to Bugtown Airport? Find the distance to fly.

From to 15IN

Sunrise and sunset
Times for 07-Jun-2020
 Local
(UTC-5)
 Zulu
(UTC)
Morning civil twilight04:5809:58
Sunrise05:2910:29
Sunset20:1201:12
Evening civil twilight20:4301:43

Current date and time
Zulu (UTC)  07-Jun-2020 07:23:08
Local (UTC-5)  07-Jun-2020 02:23:08
 
METAR
KCUL 
14nm W 
070657Z AUTO 36005KT 10SM CLR 24/19 A2998 RMK AO2
KEVV 
16nm E 
070654Z AUTO 02005KT 10SM CLR 23/18 A2999 RMK AO2 SLP149 T02280178
KEHR 
22nm S 
070656Z AUTO 05004KT 10SM CLR 24/20 A2998 RMK AO2 SLP147 T02440200
KI19 
26nm E 
070655Z AUTO 00000KT 10SM CLR 17/10 A3005 RMK AO2 T01730097
TAF
KEVV 
16nm E 
070520Z 0706/0806 VRB02KT P6SM SCT100 FM071500 08007KT P6SM SCT045 FM080000 VRB03KT P6SM SCT250
NOTAMs
Click for the latest NOTAMs
NOTAMs are issued by the DoD/FAA and will open in a separate window not controlled by AirNav.

 

 
 

Would you like to see your business listed on this page?

 If your business provides an interesting product or service to pilots, flight crews, aircraft, or users of the Bugtown Airport, you should consider listing it here.  To start the listing process, click on the button below
 
Add a business
 

Other Pages about Bugtown Airport

Update a link
 
Copyright © AirNav, LLC. All rights reserved. Privacy Policy  Contact